Regional Weather Roundup
Issued by NWS

Home | Current Version | Previous Version | Graphics & Text | Print | Product List | Glossary On
Versions: 1 2 3 4 5 6 7 8 9 10 11 12 13 14 15 16 17 18 19 20 21 22 23 24 25 26 27 28 29 30 31 32 33 34 35 36 37 38 39 40 41 42 43 44 45 46
000
ASUS45 KBOU 261410
RWRCO

WEATHER ROUNDUP FOR COLORADO
NATIONAL WEATHER SERVICE DENVER/BOULDER CO
800 AM MDT THU APR 26 2018

NOTE: "FAIR" INDICATES FEW OR NO CLOUDS BELOW 12000 FEET WITH NO
SIGNIFICANT WEATHER AND/OR OBSTRUCTIONS TO VISIBILITY.

COZ001>005-013-030-031-261500-
...NORTHWEST COLORADO...

CITY           SKY/WX    TMP DP  RH WIND       PRES   REMARKS
CRAIG          FAIR      41  27  57 CALM      30.29R
HAYDEN         FAIR      37  24  59 W3        30.30R
MEEKER         FAIR      37  25  61 SE5       30.29R
RANGELY        FAIR      47  26  44 E15G28    30.27R
RABBIT EARS PA FAIR      28  19  69 N5        30.32R WCI  23
STEAMBOAT SPGS FAIR      37  23  56 CALM      30.28R
WALDEN         PTSUNNY   36  23  60 N15       30.32R
$$

COZ006>008-011-261500-
...WEST CENTRAL VALLEYS...

CITY           SKY/WX    TMP DP  RH WIND       PRES   REMARKS
GRAND JUNCTION FAIR      50  22  33 SW8       30.20R
MONTROSE       FAIR      43  16  33 SE8       30.24R
EAGLE          FAIR      40  17  39 N5        30.29R
RIFLE          FAIR      42  26  53 NE7       30.24R
DELTA          FAIR      46  17  31 CALM      30.22R
NUCLA          FAIR      45   5  19 CALM      30.25R
$$

COZ017>023-064>068-261500-
...SOUTHWEST COLORADO...

CITY           SKY/WX    TMP DP  RH WIND       PRES   REMARKS
DURANGO        FAIR      39  11  31 E5        30.15R
CORTEZ         FAIR      44  12  27 NE6       30.17R
PAGOSA SPRINGS FAIR      42   9  25 CALM      30.20R
TELLURIDE      FAIR      41  11  29 W6        30.30R
WOLF CREEK PAS FAIR      32   9  37 CALM      30.37R
$$

COZ009-010-012-014-032>034-037-058>063-261500-
...CENTRAL COLORADO...

CITY           SKY/WX    TMP DP  RH WIND       PRES   REMARKS
ASPEN          FAIR      39  18  42 CALM      30.25R
BUENA VISTA    FAIR      46  15  28 N13       30.21S
COPPER MTN     NOT AVBL
BERTHOUD PASS  PTSUNNY   18   7  62 NW6       30.31R WCI   9
COTTONWOOD PAS FAIR      43  16  33 CALM      30.27R
GUNNISON       FAIR      31  18  58 CALM      30.26R
GRANBY         PTSUNNY   35  22  58 N6        30.29R WCI  30
KREMMLING      FAIR      45  23  42 N6        30.30R
LEADVILLE      FAIR      34  15  46 N14G21    30.27R WCI  25
MONARCH PASS   FAIR      30  12  47 N13G26    30.42R WCI  20
SALIDA         FAIR      42  19  40 CALM      30.29R
SUNLIGHT       FAIR      32  12  43 N5        30.38R WCI  27
WILKERSON PASS FAIR      28  19  69 E10       30.32R WCI  19
$$

COZ069>075-261500-
...SAN LUIS VALLEY/SANGRE DE CRISTO MOUNTAINS...

CITY           SKY/WX    TMP DP  RH WIND       PRES   REMARKS
ALAMOSA        FAIR      42  13  30 CALM      30.18R
DEL NORTE      FAIR      47  10  21 NW12      30.20R
LA VETA PASS   FAIR      32  21  64 E9G21     30.39R WCI  24
SAGUACHE       NOT AVBL
$$

COZ035-036-038>040-261500-
...NORTHERN COLORADO FRONT RANGE...

CITY           SKY/WX    TMP DP  RH WIND       PRES   REMARKS
DENVER INTL AP PTSUNNY   45  29  53 N23G35    30.24R
AURORA         NOT AVBL
FRONT RANGE AP NOT AVBL
ERIE MUNI ARPT FAIR      46  29  53 NE26G32   30.28R
BOULDER MUN AP FAIR      48  30  49 SE6       30.24R
CENTENNIAL     PTSUNNY   44  29  55 N16       30.26R
BROOMFIELD     NOT AVBL
FORT COLLINS   FAIR      48  31  51 N21G26    30.26R
LONGMONT       NOT AVBL
$$

COZ041-046-047-076>085-087-088-261500-
...PIKES PEAK/PALMER DIVIDE AND SOUTHERN FOOTHILLS...

CITY           SKY/WX    TMP DP  RH WIND       PRES   REMARKS
COLO. SPRINGS  FAIR      46  26  45 N24G35    30.22R
A. F. ACADEMY  FAIR      44  25  47 N22G30    30.23R
SCHRIEVER AFB  NOT AVBL
CHEYENNE MTN   FAIR      43  22  43 N24G32    30.17R
ELLICOTT         N/A    N/A N/A N/A N36G45    30.17R
FALCON         FAIR      42  25  52 N29G37    30.23R
FORT CARSON    FAIR      49  24  38 N38G47    30.16R
LIMON          FAIR      45  30  55 N31G44    30.17R
MONUMENT HILL  CLOUDY    36  28  75 N18G25    30.27R
CANON CITY     FAIR      50  28  43 NW5       30.16R
WALSENBURG     NOT AVBL
TRINIDAD       FAIR      49  25  39 N20G29    30.21R
$$

COZ042>045-048>051-090-091-261500-
...NORTHEAST COLORADO...

CITY           SKY/WX    TMP DP  RH WIND       PRES   REMARKS
GREELEY ARPT   CLOUDY    47  30  51 NW25G32   30.25R
AKRON          CLOUDY    47  31  53 N38G48    30.17R
BURLINGTON     FAIR      51  33  50 N24G43    30.07R
WRAY           FAIR      50  32  50 N31G38    30.12R
YUMA           FAIR      46  27  46 N28G35    30.14R
STERLING       NOT AVBL
HOLYOKE        FAIR      54  36  50 N29G37    30.13R
FORT MORGAN    FAIR      48  26  43 N26G40    30.20R
$$

COZ086-089-092>099-261500-
...SOUTHEAST COLORADO...

CITY           SKY/WX    TMP DP  RH WIND       PRES   REMARKS
PUEBLO         FAIR      54  25  32 N28G47    30.15R
LA JUNTA       FAIR      54  28  36 N31G45    30.11R
LAMAR          FAIR      53  31  42 N29G41    30.02R
SPRINGFIELD    NOT AVBL
$$




USA.gov is the U.S. government's official web portal to all federal, state and local government web resources and services.